Location: Barnston
(51.8500°N, 0.4000°E)
Time: 02:35:38
(UTC+00:00)

Daily predictions for brighter satellites

Satellite Brightness Start Highest point End
(mag) Time Altitude Azimuth Time Altitude Azimuth Time Altitude Azimuth
Cosmos 2369 Rocket 3.8 00:10:57 31° NNE 00:10:57 31° NNE 00:13:49 10° NNE
USA 234 4.1 00:03:23 10° ENE 00:17:11 - WNW 00:07:47 42° NE
COSMOS 2455 4.4 00:26:25 29° NNW 00:26:41 29° NNW 00:31:55 10° NNE
Cosmos 2227 Rocket 3.5 00:50:30 10° NNW 00:54:07 35° N 00:54:07 35° N
SL-16 R/B 3.0 01:15:09 55° N 01:15:09 55° N 01:19:59 10° NNW
ATLAS 2AS CENTAUR R/B 4.3 01:11:20 10° WNW 01:18:24 34° N 01:25:07 10° ENE
CZ-2D R/B 3.4 01:15:13 10° NNE 01:18:48 36° NE 01:18:48 36° NE
Cosmos 1943 Rocket 4.0 01:21:05 22° NW 01:21:05 22° NW 01:25:20 10° NNE
Lacrosse 5 4.3 01:29:27 14° E 01:29:27 14° E 01:30:40 10° E
Resurs 1-4 Rocket 3.2 01:22:17 10° NNE 01:25:56 40° NE 01:25:56 40° NE
ATLAS 5 CENTAUR R/B 3.7 01:30:41 26° NE 01:30:41 26° NE 01:32:51 10° NE
Cosmos 1818 4.5 01:44:09 45° ENE 01:44:09 45° ENE 01:47:59 10° NE
Cosmos 2297 Rocket 3.8 01:37:06 10° NNW 01:39:22 25° NW 01:39:22 25° NW
Cosmos 2082 4.3 01:43:09 10° NNW 01:47:38 52° N 01:47:38 52° N
USA 234 3.3 01:45:58 10° ESE 01:52:28 73° NNE 01:55:07 39° NW
Cosmos 2369 Rocket 4.0 01:52:43 21° NW 01:53:13 21° NNW 01:57:28 10° NNE
CZ-4C R/B 4.1 01:51:44 18° NW 01:55:10 30° N 02:01:20 10° ENE
CZ-4B R/B 4.4 01:54:18 10° NNE 01:58:43 44° E 01:58:43 44° E
Cosmos 1697 Rocket 3.7 02:01:36 36° ESE 02:01:37 36° ESE 02:06:42 10° NE
SL-8 Rocket 4.5 01:56:13 10° NNW 02:00:56 49° NW 02:00:56 49° NW
SL-19 R/B 4.5 02:05:20 65° N 02:05:20 65° N 02:10:09 10° NNW
NOSS 2-2 (C) 4.4 02:06:12 74° E 02:06:12 74° E 02:13:00 10° SE
Cosmos 1980 Rocket 3.9 02:05:36 22° ESE 02:06:55 23° ESE 02:11:18 10° NE
Cosmos 2263 Rocket 3.7 02:04:33 10° NNW 02:09:42 34° NE 02:14:50 10° ESE
Cosmos 2366 rocket 4.3 02:11:22 10° NNW 02:16:30 53° NW 02:16:30 53° NW
Cosmos 2218 Rocket 4.4 02:11:45 10° NNW 02:16:58 52° NW 02:16:58 52° NW
Gbstr 26 Del rocket 4.4 02:18:38 54° W 02:20:50 86° SSW 02:28:35 10° ESE
CZ-3B R/B 3.4 02:25:23 33° E 02:25:23 33° E 02:29:42 10° ENE
ADEOS II 2.2 02:20:07 10° NNE 02:25:23 69° ESE 02:25:24 69° ESE
Cosmos 1151 Rocket 4.0 02:26:32 46° ENE 02:26:32 46° ENE 02:30:07 10° NNE
Nadezhda 3 Rocket 4.3 02:26:58 45° SSE 02:28:37 60° E 02:34:40 10° NNE
ARIANE 5 R/B 3.5 02:25:20 10° NNE 02:30:09 40° E 02:31:22 34° SE
Cosmos 1656 3.5 02:32:28 82° NNW 02:32:28 82° NNW 02:37:53 10° NNE
IDEFIX/ARIANE 42P 3.9 02:29:41 10° NNE 02:34:32 35° E 02:36:51 24° SE
IRS-1D 3.5 02:29:57 10° NNE 02:35:21 88° ESE 02:35:24 88° SSE
ASTEX 1 4.5 02:34:27 10° NNE 02:39:13 41° E 02:41:21 27° SE
Cosmos 2227 Rocket 4.2 02:34:48 10° NW 02:35:52 15° NW 02:35:52 15° NW
Cosmos 2181 Rocket 4.4 02:43:38 45° WNW 02:43:38 45° WNW 02:49:29 10° N
CBERS-1 3.9 02:39:22 10° NNE 02:44:30 83° WNW 02:44:31 83° WNW
IRS-1C 4.2 02:46:17 10° NNE 02:51:40 75° ESE 02:52:48 55° S
Meteor 1-20 Rocket 4.0 02:50:16 10° NNW 02:55:43 68° W 02:55:51 67° WSW
USA 307 3.5 02:57:59 48° ESE 02:57:59 48° ESE 03:01:37 10° ENE
Cosmos 1238 Rocket 4.2 02:50:54 10° N 02:57:34 73° ENE 03:03:44 10° SSE
SJ 16-02 2.4 02:53:23 10° NNW 02:57:39 46° ENE 03:01:53 10° SE
SL-16 R/B 4.0 03:00:15 20° WNW 03:00:15 20° WNW 03:02:56 10° NW
USA 267 3.5 02:51:53 10° ENE 02:58:22 59° SE 03:00:27 42° SSW
Cosmos 1782 3.3 02:59:09 56° ESE 02:59:21 57° E 03:03:20 10° NNE
CZ-2D R/B 3.0 02:55:33 10° N 03:00:07 33° WNW 03:00:07 33° WNW
Cosmos 44 4.2 02:59:36 31° SE 03:00:28 34° ESE 03:04:42 10° NE
USA 308 3.4 03:01:02 51° SE 03:01:02 51° SE 03:04:49 10° ENE
Cosmos 389 Rocket 3.5 03:02:27 43° E 03:02:27 43° E 03:05:51 10° NNE
USA 276 4.1 03:04:24 25° ESE 03:04:24 25° ESE 03:05:59 10° E
Cosmos 1606 4.3 03:04:57 26° NNW 03:04:57 26° NNW 03:06:56 10° N
Cosmos 2278 4.0 03:02:26 40° S 03:04:22 62° ESE 03:10:01 10° NE
Resurs 1-4 Rocket 3.2 03:02:33 10° N 03:07:00 30° WNW 03:07:00 30° WNW
ATLAS CENTAUR R/B 4.1 02:52:19 10° W 03:07:42 62° N 03:13:14 10° E
Lacrosse 5 1.8 03:08:39 61° SSW 03:09:22 72° SSE 03:14:27 10° ENE
ERS-1 4.5 03:04:54 10° NNE 03:10:04 83° ESE 03:11:43 45° S
H-2A R/B 2.9 03:06:26 10° SE 03:10:42 51° ENE 03:15:04 10° N
ATLAS 2AS CENTAUR R/B 3.6 03:03:30 10° NW 03:11:03 52° NNE 03:18:01 10° ESE
NPP 4.5 03:06:42 10° N 03:11:29 33° WNW 03:11:43 33° WNW
Cosmos 2369 3.6 03:11:30 51° SW 03:13:04 85° WNW 03:18:51 10° NNE
ATLAS 5 CENTAUR R/B 2.9 03:12:12 27° NW 03:13:16 30° NNW 03:17:44 10° NE
SL-08 R/B 3.8 03:16:44 42° WNW 03:16:44 42° WNW 03:20:20 10° NNW
Landsat 5 3.9 03:18:49 10° SSE 03:23:17 68° ENE 03:27:44 10° N
ADEOS Rocket 4.0 03:18:21 10° SE 03:24:41 49° ENE 03:30:26 10° N
CZ-4B R/B 4.2 03:23:16 10° ESE 03:25:37 19° ENE 03:28:01 10° NNE
Cosmos 972 4.5 03:25:29 31° S 03:27:48 72° ESE 03:32:41 10° NNE
Cosmos 1470 Rocket 4.4 03:24:44 10° NNW 03:27:56 35° WNW 03:27:56 35° WNW
IRS-P3 4.3 03:25:34 10° N 03:30:47 55° WNW 03:32:20 40° WSW
Spot 4 Rocket 4.0 03:25:36 10° NNE 03:30:48 86° ESE 03:33:40 27° SSW
MSX 4.0 03:27:15 10° NNE 03:33:04 73° ESE 03:37:58 15° S
ERS-2 3.2 03:29:58 10° SE 03:33:28 46° ENE 03:37:01 10° N
USA 234 3.3 03:29:17 10° SE 03:35:41 56° SW 03:42:07 10° WNW
CZ-4B R/B 4.3 03:33:15 10° N 03:37:45 33° WNW 03:38:39 31° W
Cosmos 2360 4.3 03:37:38 36° SW 03:40:00 66° NW 03:45:45 10° NNE
Cosmos 1536 4.3 03:36:53 10° N 03:40:44 38° ENE 03:44:34 10° SE
Cosmos 1898 Rocket 3.7 03:35:34 10° NNW 03:40:51 76° ENE 03:46:08 10° SSE
X-37B 2.6 03:42:02 19° SSE 03:42:02 19° SSE 03:43:34 10° SE
CSL-04 DEB 4.4 03:37:48 10° SSE 03:42:08 84° WSW 03:46:33 10° NNW
Iridium 2 3.6 03:42:11 53° SW 03:42:46 62° W 03:46:31 10° N
IRIDIUM 104 4.5 03:38:47 10° N 03:44:03 77° E 03:49:15 10° S
BREEZE M DEB (TANK) 4.5 03:27:16 10° WNW 03:45:18 52° SW 03:50:23 10° SE
CZ-4C R/B 3.9 03:39:12 10° NW 03:45:23 41° NNE 03:52:39 10° E
Cosmos 1697 Rocket 3.0 03:43:20 33° WSW 03:45:28 49° NW 03:50:56 10° NNE
SL-8 R/B 4.4 03:45:53 32° SSW 03:46:08 33° SSW 03:50:23 10° SE
Cosmos 1980 Rocket 2.2 03:47:24 29° SW 03:50:24 73° WNW 03:56:05 10° NNE
Cosmos 972 Rocket 4.3 03:49:28 33° WSW 03:51:01 43° WNW 03:55:46 10° NNE
Cosmos 1515 Rocket 3.9 03:50:06 36° WSW 03:51:14 44° WNW 03:55:31 10° N
IRIDIUM 114 4.3 03:47:56 10° N 03:53:12 90° E 03:58:26 10° S
Cosmos 2263 Rocket 2.2 03:48:24 10° NW 03:53:57 58° WSW 03:59:29 10° S
Cosmos 1934 Rocket 4.2 03:48:56 10° NNW 03:54:38 44° W 03:59:39 13° SSW
Cosmos 921 Rocket 2.9 03:52:49 23° SSW 03:55:21 83° ESE 03:59:34 10° NNE
Meteor 1-26 Rocket 4.5 03:53:50 29° SW 03:56:10 45° WNW 04:01:24 10° N
Cosmos 2322 Rocket 3.5 03:52:04 10° S 03:57:18 40° ESE 04:02:35 10° NE
USA 32 4.3 03:53:31 10° N 03:58:48 74° E 04:04:02 10° SSE
Cosmos 1844 Rocket 3.7 03:54:26 10° NNW 03:59:54 48° NE 04:05:21 10° SE
Cosmos 1500 3.4 03:57:14 10° NNW 04:00:57 47° W 04:03:18 20° SSW
IRIDIUM 103 4.2 03:57:06 10° N 04:02:20 78° W 04:07:33 10° S
Cosmos 1151 Rocket 4.4 04:03:24 21° WNW 04:03:45 21° WNW 04:07:06 10° NNW
Cosmos 1812 2.6 04:01:20 18° SSW 04:04:08 81° W 04:08:01 10° N
ADEOS II 3.4 04:00:31 10° N 04:04:39 24° WNW 04:06:19 20° W
Cosmos 1707 Rocket 4.2 04:00:25 10° S 04:04:39 56° E 04:08:56 10° NNE
USA 305 2.8 04:03:31 30° WSW 04:05:33 84° NNW 04:09:49 10° ENE
SL-16 R/B 2.9 04:00:51 10° S 04:06:20 54° ESE 04:11:53 10° NE
Cosmos 1666 2.6 04:02:46 10° NNW 04:06:37 86° W 04:10:25 10° S
Cosmos 1937 Rocket 3.4 04:01:33 10° NNW 04:06:45 88° ENE 04:11:53 10° SSE
CZ-4C R/B 3.5 04:06:18 23° SSW 04:08:04 39° W 04:11:27 10° NNW
Cosmos 192 4.4 04:05:48 23° SW 04:08:45 60° WNW 04:13:39 10° NNE
ARIANE 5 R/B 3.2 04:04:34 10° N 04:09:14 36° WNW 04:11:42 23° WSW
USA 306 2.9 04:07:32 28° WSW 04:09:45 82° NNW 04:14:02 10° ENE
IDEFIX/ARIANE 42P 3.1 04:09:16 10° N 04:14:12 42° WNW 04:17:39 19° SW
COSMOS 2441 4.5 04:11:33 10° N 04:16:23 57° WNW 04:20:46 12° SW
Meteor 1-10 Rocket 4.3 04:10:59 10° SSW 04:16:47 79° WNW 04:22:44 10° N
Cosmos 1153 Rocket 4.5 04:10:46 10° NNW 04:17:08 69° W 04:23:24 10° S
ASTEX 1 4.2 04:13:42 10° N 04:18:06 32° WNW 04:20:50 19° WSW
CZ-2C R/B 2.6 04:13:17 10° NNE 04:18:26 86° ESE 04:23:38 10° SSW
Cosmos 1733 Rocket 3.3 04:14:16 10° N 04:18:38 71° ENE 04:22:58 10° SSE
Cosmos 2228 Rocket 3.4 04:17:07 18° SW 04:20:01 43° WNW 04:24:16 10° N
IRIDIUM 106 4.4 04:15:31 10° NNW 04:20:37 56° W 04:25:43 10° SSW
Cosmos 1605 Rocket 4.3 04:15:25 10° NNW 04:21:26 44° W 04:27:26 10° SSW
SAR-Lupe-4 3.8 04:18:47 10° SSE 04:22:22 73° ENE 04:25:59 10° NNW
CZ-2D R/B 4.5 04:19:15 10° N 04:22:53 29° WNW 04:24:57 20° WSW
Cosmos 1869 Rocket 4.1 04:21:28 10° NNW 04:25:28 36° W 04:29:25 10° SSW
Meteor 1-5 Rocket 4.5 04:20:37 10° NNW 04:25:34 41° W 04:30:34 10° SSW
SL-4 R/B 3.9 04:21:43 10° SSW 04:25:41 29° SE 04:29:48 10° E
Cosmos 1763 Rocket 3.6 04:22:51 10° SSW 04:28:10 81° ESE 04:33:30 10° NNE
Meteor 2-6 Rocket 4.5 04:26:22 10° SSW 04:31:55 53° WNW 04:37:41 10° N
Cosmos 2016 Rocket 4.3 04:25:53 10° N 04:32:01 70° ENE 04:38:06 10° SSE
CZ-2C R/B 3.6 04:29:46 10° N 04:33:07 31° WNW 04:35:35 16° WSW
SAR-Lupe-1 4.0 04:30:58 10° SSE 04:34:31 87° WSW 04:38:08 10° NNW
SJ 16-02 2.3 04:32:25 10° NW 04:36:00 25° W 04:39:33 10° SSW
Cosmos 1782 4.5 04:34:47 15° W 04:36:03 17° WNW 04:38:49 10° NNW
Meteor 1-4 Rocket 2.7 04:33:51 10° SSW 04:37:08 46° WNW 04:40:35 10° N
Cosmos 389 Rocket 4.2 04:36:18 16° W 04:37:22 18° WNW 04:39:52 10° NNW
USA 307 3.0 04:34:10 16° W 04:37:29 71° N 04:41:45 10° ENE
PSLV R/B 3.6 04:33:58 10° N 04:38:06 57° WNW 04:42:13 10° SSW
NOSS 3-4 (A) 3.8 04:31:31 10° NW 04:38:22 70° SW 04:45:59 10° SSE
NOSS 3-4 (C) 3.8 04:31:37 10° NW 04:38:28 70° SW 04:46:06 10° SSE
Cosmos 1862 Rocket 4.1 04:34:29 10° S 04:38:48 63° E 04:43:08 10° NNE
USA 276 2.3 04:36:45 18° W 04:38:57 58° S 04:42:08 10° ESE
USA 308 3.0 04:37:13 15° W 04:40:41 70° N 04:44:57 10° ENE
USA 267 3.4 04:35:01 10° ENE 04:41:32 71° NNW 04:47:47 11° W
Cosmos 44 3.6 04:38:02 15° WSW 04:41:35 47° NW 04:46:13 10° NE
BREEZE-M DEB (TANK) 4.0 04:35:48 10° SW 04:41:45 28° S 04:44:26 10° ESE
BREEZE-M DEB (TANK) 3.7 04:40:44 14° WSW 04:43:25 61° SSE 04:52:24 10° E
PAYLOAD A 4.0 04:38:52 10° N 04:43:29 53° WNW 04:48:01 10° SW
Cosmos 1743 2.9 04:41:26 10° N 04:45:16 75° E 04:49:04 10° SSE
ERBS 2.3 04:43:59 13° SW 04:46:55 79° SSE 04:50:17 10° ENE
H-2A R/B 3.3 04:43:29 10° SW 04:46:57 22° W 04:50:29 10° NW
NOSS 3-3 (A) 4.1 04:44:08 10° SW 04:50:01 71° NW 04:56:52 10° NE
NOSS 3-3 (C) 4.1 04:44:18 10° SW 04:50:07 71° NW 04:56:57 10° NE
Cosmos 1725 Rocket 4.2 04:45:29 10° N 04:51:43 80° ENE 04:57:54 10° SSE
Lacrosse 5 2.4 04:47:50 11° W 04:52:35 53° NNW 04:57:33 10° ENE
Cosmos 540 Rocket 3.7 04:50:20 10° SSW 04:55:29 74° ESE 05:00:41 10° NNE
Cosmos 468 Rocket 4.1 04:51:07 10° SW 04:56:20 59° WNW 05:01:34 10° NNE
CZ-4B R/B 1.9 04:54:47 10° SSW 04:57:42 33° W 05:00:42 10° NNW
Cosmos 2100 Rocket 4.2 04:51:47 10° NNW 04:58:00 55° W 05:04:11 10° SSW
ATLAS 5 CENTAUR R/B 3.8 04:55:31 10° NW 04:59:21 23° N 05:03:41 10° NE
Cosmos 1727 Rocket 4.3 04:54:42 10° SW 05:00:49 48° WNW 05:06:56 10° N
ALOS 2.3 04:56:15 10° NNE 05:00:57 89° E 05:05:38 10° SSW
CZ-4B R/B 3.8 04:58:30 10° NNE 05:02:07 48° E 05:05:36 10° S
ATLAS 2AS CENTAUR R/B 2.9 04:54:52 10° NW 05:02:18 62° SW 05:09:07 10° SSE
Cosmos 1802 Rocket 4.0 04:56:59 10° NNW 05:03:05 65° W 05:09:16 10° S
CZ-4B R/B 4.2 04:59:24 10° NNE 05:03:43 86° ESE 05:08:10 10° SSW
Meteor 1-11 Rocket 4.4 04:58:38 10° NNW 05:03:46 33° W 05:08:46 10° SSW
ERS-2 3.6 05:04:44 10° SW 05:07:16 18° W 05:09:49 10° NW
Okean 1 3.8 05:03:37 10° S 05:07:38 67° E 05:11:40 10° NNE
ADEOS Rocket 3.6 05:04:11 10° SSW 05:10:21 38° W 05:16:00 10° NNW
Cosmos 1484 Rocket 2.8 05:06:35 10° N 05:10:33 66° WNW 05:14:30 10° SSW
